Location: Krasnoyarskiy Pitomnik
(51.1333°N, 71.6167°E)
Time: 10:20:52
(UTC+00:00)

NOSS 2 (A) - Pass Details

Date: 22 October 2021
Orbit: 273 x 1575 km, 63.3° (Epoch: 06 February)

Event Time Altitude Azimuth Distance (km) Brightness Sun altitude
Rises 13:32:56 0° 314° (NW) 2,303 9.2 -14.2°
Reaches altitude 10° 13:35:09 10° 312° (NW) 1,345 8.0 -14.6°
Maximum altitude 13:38:02 68° 230° (SW) 352 4.5 -15.0°
Enters shadow 13:39:10 29° 153° (SSE) 610 5.3 -15.2°
